Weather History for Philadelphia Wings Airport, PA

Change the Weather History Date:

Thursday, March 6, 2014

  Actual Average (KPNE) Record (KPNE)
Temperature  
Mean Temperature 26 °F -  
Max Temperature 32 °F 45 °F 66 °F (2004)
Min Temperature 19 °F 28 °F 16 °F (2007)
Degree Days  
Heating Degree Days 40    
Moisture  
Dew Point 10 °F    
Average Humidity 49    
Maximum Humidity 69    
Minimum Humidity 32    
Precipitation  
Precipitation 0.00 in - - ()
Sea Level Pressure  
Sea Level Pressure 30.51 in    
Wind  
Wind Speed 5 mph (ENE)    
Max Wind Speed 9 mph    
Max Gust Speed 17 mph    
Visibility 10 miles    
Events      
Averages and records for this station are not official NWS values.
T = Trace of Precipitation, MM = Missing Value Source: NWS Daily Summary

Daily Weather History Graph

Daily Weather History Graph

Search for Another Location

Airport:

Trip Planner

Search our weather history database for the weather conditions in past years. The results will help you decide how hot, cold, wet, or windy it might be!

Date:

Astronomy

Mar. 06, 2014 Rise Set
Actual Time 6:26 AM EST 5:58 PM EST
Civil Twilight 5:59 AM EST 6:25 PM EST
Nautical Twilight 5:28 AM EST 6:56 PM EST
Astronomical Twilight 4:56 AM EST 7:28 PM EST
Moon 9:32 AM EST (3/6) No Moon Set
Length of Visible Light 12h 25m
Length of Day
11h 31m
Waxing Crescent, 32% of the Moon is Illuminated
Mar 6
Waxing Crescent
Mar 8
First Quarter
Mar 16
Full
Mar 23
Last Quarter
Mar 30
New

Hourly Weather History & Observations

Time (EST) Temp. Windchill Dew Point Humidity Pressure Visibility Wind Dir Wind Speed Gust Speed Precip Events Conditions
12:15 AM 28.4 °F 22.2 °F 12.2 °F 51% 30.43 in 10.0 mi North 5.8 mph - N/A   Clear
12:35 AM 26.6 °F 20.0 °F 12.2 °F 55% 30.44 in 10.0 mi North 5.8 mph - N/A   Clear
12:55 AM 26.6 °F 21.2 °F 12.2 °F 55% 30.44 in 10.0 mi North 4.6 mph - N/A   Clear
1:15 AM 26.6 °F 19.1 °F 12.2 °F 55% 30.45 in 10.0 mi North 6.9 mph - N/A   Clear
1:35 AM 26.6 °F 21.2 °F 12.2 °F 55% 30.45 in 10.0 mi North 4.6 mph - N/A   Clear
1:55 AM 26.6 °F 21.2 °F 12.2 °F 55% 30.45 in 10.0 mi North 4.6 mph - N/A   Clear
2:15 AM 24.8 °F 19.1 °F 12.2 °F 59% 30.45 in 10.0 mi North 4.6 mph - N/A   Clear
2:35 AM 24.8 °F - 12.2 °F 59% 30.46 in 10.0 mi Calm Calm - N/A   Clear
2:55 AM 24.8 °F - 12.2 °F 59% 30.46 in 10.0 mi Calm Calm - N/A   Clear
3:15 AM 24.8 °F - 12.2 °F 59% 30.46 in 10.0 mi Calm Calm - N/A   Clear
3:30 AM 23.0 °F 18.4 °F 12.2 °F 63% 30.47 in 10.0 mi NNE 3.5 mph - N/A   Clear
3:55 AM 23.0 °F 18.4 °F 10.4 °F 59% 30.47 in 10.0 mi NNE 3.5 mph - N/A   Clear
4:15 AM 23.0 °F - 10.4 °F 59% 30.49 in 10.0 mi Calm Calm - N/A   Clear
4:35 AM 23.0 °F 18.4 °F 8.6 °F 54% 30.50 in 10.0 mi NE 3.5 mph - N/A   Clear
4:55 AM 23.0 °F 13.1 °F 6.8 °F 50% 30.51 in 10.0 mi NE 9.2 mph - N/A   Clear
5:15 AM 21.2 °F 10.9 °F 5.0 °F 50% 30.50 in 10.0 mi ENE 9.2 mph 17.3 mph N/A   Clear
5:35 AM 21.2 °F 11.7 °F 5.0 °F 50% 30.51 in 10.0 mi NE 8.1 mph 17.3 mph N/A   Clear
5:55 AM 21.2 °F 11.7 °F 5.0 °F 50% 30.52 in 10.0 mi NE 8.1 mph - N/A   Clear
6:15 AM 21.2 °F 13.6 °F 3.2 °F 46% 30.53 in 10.0 mi NE 5.8 mph - N/A   Clear
6:35 AM 19.4 °F - 5.0 °F 54% 30.53 in 10.0 mi Calm Calm - N/A   Clear
6:55 AM 19.4 °F 12.8 °F 5.0 °F 54% 30.54 in 10.0 mi NE 4.6 mph - N/A   Clear
7:15 AM 21.2 °F 11.7 °F 3.2 °F 46% 30.55 in 10.0 mi NE 8.1 mph - N/A   Clear
7:35 AM 21.2 °F 13.6 °F 3.2 °F 46% 30.55 in 10.0 mi NE 5.8 mph - N/A   Clear
7:55 AM 21.2 °F 12.6 °F 1.4 °F 42% 30.56 in 10.0 mi ENE 6.9 mph - N/A   Clear
8:15 AM 23.0 °F 15.8 °F 1.4 °F 39% 30.57 in 10.0 mi NE 5.8 mph - N/A   Clear
8:35 AM 23.0 °F 13.1 °F 1.4 °F 39% 30.58 in 10.0 mi ENE 9.2 mph - N/A   Clear
8:55 AM 23.0 °F 17.0 °F -0.4 °F 36% 30.60 in 10.0 mi NE 4.6 mph - N/A   Clear
9:15 AM 23.0 °F 13.9 °F 1.4 °F 39% 30.61 in 10.0 mi ENE 8.1 mph - N/A   Clear
9:35 AM 24.8 °F 16.9 °F 1.4 °F 36% 30.60 in 10.0 mi NNE 6.9 mph - N/A   Clear
9:55 AM 24.8 °F 19.1 °F 1.4 °F 36% 30.60 in 10.0 mi ENE 4.6 mph - N/A   Clear
10:15 AM 26.6 °F 19.1 °F 3.2 °F 37% 30.62 in 10.0 mi ENE 6.9 mph - N/A   Clear
10:35 AM 26.6 °F 21.2 °F 1.4 °F 34% 30.60 in 10.0 mi NNE 4.6 mph - N/A   Clear
10:55 AM 26.6 °F 20.0 °F 3.2 °F 37% 30.58 in 10.0 mi ENE 5.8 mph - N/A   Clear
11:15 AM 26.6 °F 19.1 °F 3.2 °F 37% 30.58 in 10.0 mi East 6.9 mph - N/A   Clear
11:35 AM 28.4 °F 23.3 °F 5.0 °F 37% 30.58 in 10.0 mi North 4.6 mph - N/A   Clear
11:50 AM 28.4 °F 22.2 °F 5.0 °F 37% 30.57 in 10.0 mi East 5.8 mph - N/A   Clear
12:15 PM 30.2 °F 25.4 °F 5.0 °F 34% 30.57 in 10.0 mi ESE 4.6 mph - N/A   Clear
12:35 PM 30.2 °F 25.4 °F 5.0 °F 34% 30.56 in 10.0 mi East 4.6 mph - N/A   Clear
12:55 PM 30.2 °F 24.3 °F 5.0 °F 34% 30.55 in 10.0 mi ENE 5.8 mph - N/A   Clear
1:15 PM 30.2 °F 26.7 °F 5.0 °F 34% 30.54 in 10.0 mi NE 3.5 mph - N/A   Clear
1:35 PM 32.0 °F 27.5 °F 8.6 °F 38% 30.53 in 10.0 mi NE 4.6 mph - N/A   Clear
1:55 PM 32.0 °F 28.7 °F 5.0 °F 32% 30.53 in 10.0 mi ESE 3.5 mph - N/A   Clear
2:15 PM 32.0 °F 27.5 °F 6.8 °F 35% 30.51 in 10.0 mi East 4.6 mph - N/A   Clear
2:35 PM 32.0 °F 24.2 °F 6.8 °F 35% 30.49 in 10.0 mi ESE 9.2 mph - N/A   Clear
2:55 PM 32.0 °F 27.5 °F 8.6 °F 38% 30.50 in 10.0 mi ENE 4.6 mph - N/A   Clear
3:15 PM 32.0 °F 26.4 °F 6.8 °F 35% 30.50 in 10.0 mi ENE 5.8 mph - N/A   Clear
3:35 PM 32.0 °F 24.8 °F 8.6 °F 38% 30.49 in 10.0 mi East 8.1 mph - N/A   Clear
3:55 PM 32.0 °F 24.8 °F 10.4 °F 41% 30.49 in 10.0 mi ESE 8.1 mph - N/A   Clear
4:10 PM 32.0 °F 25.6 °F 10.4 °F 41% 30.50 in 10.0 mi East 6.9 mph - N/A   Clear
4:35 PM 32.0 °F 27.5 °F 10.4 °F 41% 30.50 in 10.0 mi East 4.6 mph - N/A   Clear
4:55 PM 32.0 °F 25.6 °F 10.4 °F 41% 30.49 in 10.0 mi East 6.9 mph - N/A   Clear
5:15 PM 32.0 °F 25.6 °F 10.4 °F 41% 30.49 in 10.0 mi East 6.9 mph - N/A   Clear
5:35 PM 32.0 °F 26.4 °F 10.4 °F 41% 30.50 in 10.0 mi East 5.8 mph - N/A   Clear
5:55 PM 32.0 °F 25.6 °F 12.2 °F 44% 30.50 in 10.0 mi East 6.9 mph - N/A   Clear
6:15 PM 30.2 °F 24.3 °F 12.2 °F 47% 30.49 in 10.0 mi East 5.8 mph - N/A   Clear
6:35 PM 30.2 °F 25.4 °F 14.0 °F 51% 30.49 in 10.0 mi East 4.6 mph - N/A   Clear
6:55 PM 30.2 °F 24.3 °F 14.0 °F 51% 30.50 in 10.0 mi East 5.8 mph - N/A   Clear
7:15 PM 30.2 °F 25.4 °F 15.8 °F 55% 30.50 in 10.0 mi East 4.6 mph - N/A   Clear
7:35 PM 30.2 °F 22.6 °F 17.6 °F 60% 30.50 in 10.0 mi East 8.1 mph - N/A   Clear
7:55 PM 30.2 °F 24.3 °F 17.6 °F 60% 30.50 in 10.0 mi East 5.8 mph - N/A   Clear
8:15 PM 28.4 °F 22.2 °F 19.4 °F 69% 30.49 in 10.0 mi East 5.8 mph - N/A   Clear
8:30 PM 28.4 °F 22.2 °F 19.4 °F 69% 30.50 in 10.0 mi ESE 5.8 mph - N/A   Clear
8:55 PM 28.4 °F 22.2 °F 19.4 °F 69% 30.49 in 10.0 mi East 5.8 mph - N/A   Clear
9:15 PM 28.4 °F 20.4 °F 19.4 °F 69% 30.48 in 10.0 mi East 8.1 mph - N/A   Clear
9:35 PM 28.4 °F 22.2 °F 19.4 °F 69% 30.48 in 10.0 mi East 5.8 mph - N/A   Clear
9:55 PM 28.4 °F 22.2 °F 19.4 °F 69% 30.48 in 10.0 mi East 5.8 mph - N/A   Clear
10:15 PM 28.4 °F 21.2 °F 19.4 °F 69% 30.46 in 10.0 mi ENE 6.9 mph - N/A   Clear
10:35 PM 28.4 °F 20.4 °F 17.6 °F 64% 30.46 in 10.0 mi East 8.1 mph - N/A   Clear
10:55 PM 28.4 °F 22.2 °F 17.6 °F 64% 30.46 in 10.0 mi East 5.8 mph - N/A   Clear
11:15 PM 28.4 °F 22.2 °F 17.6 °F 64% 30.46 in 10.0 mi East 5.8 mph - N/A   Clear
11:30 PM 28.4 °F 23.3 °F 17.6 °F 64% 30.45 in 10.0 mi ENE 4.6 mph - N/A   Clear
11:55 PM 28.4 °F 22.2 °F 17.6 °F 64% 30.44 in 10.0 mi ENE 5.8 mph - N/A   Clear